Regional Weather Roundup
Issued by NWS Midland/Odessa, TX

Home | Current Version | Previous Version | Text Only | Print | Product List | Glossary On
Versions: 1 2 3 4 5 6 7 8 9 10 11 12 13 14 15 16 17 18 19 20 21 22 23 24 25 26 27 28 29 30 31 32 33 34 35 36 37 38 39 40 41 42 43 44 45 46 47 48 49 50
000
ASUS44 KMAF 012110
RWRMAF
MIDLAND AREA WEATHER ROUNDUP
NATIONAL WEATHER SERVICE MIDLAND TX
300 PM CST SUN MAR 01 2015

...IN SOUTHWEST TEXAS AND SOUTHEAST NEW MEXICO...

CITY           SKY/WX    TMP DP  RH WIND       PRES   REMARKS
ALPINE         SUNNY     63  39  41 NE9       30.17F
ANDREWS        CLOUDY    37  35  95 E7        30.21S WCI  31
ARTESIA        PTSUNNY   43  39  87 CALM      30.15F
BIG SPRING     CLOUDY    36  34  92 NE13      30.25F WCI  27
CARLSBAD       CLOUDY    42  34  73 SE9       30.15F WCI  37
DRYDEN           N/A     50  43  77 E6        30.15F
FORT STOCKTON  CLOUDY    44  39  82 NE6       30.18F
GUAD PASS      NOT AVBL
HOBBS          CLOUDY    39  39 100 E5        30.18F WCI  36
MARFA          SUNNY     72  25  17 S10G17    30.13F
MIDLAND AIRPK  CLOUDY    37  37 100 NE7       30.22S FOG     WCI  32
MIDLAND INTL   CLOUDY    38  36  92 E9        30.20F FOG     WCI  31
ODESSA         CLOUDY    38  35  89 E8        30.20F FOG     WCI  32
PECOS          CLOUDY    42  37  83 E5        30.19F WCI  39
PRESIDIO       FAIR      67  37  32 CALM      30.06F
SEMINOLE       CLOUDY    37  33  85 E6        30.21F WCI  33
SNYDER         CLOUDY    31  30  99 NE8       30.26F FOG     WCI  23
WINK           CLOUDY    42  35  76 VRB6      30.17F WCI  38
$$
...OTHER STATIONS IN TEXAS...

CITY           SKY/WX    TMP DP  RH WIND       PRES   REMARKS
ABILENE        CLOUDY    31  30  96 N10       30.29F FOG     WCI  22
AMARILLO       CLOUDY    31  28  89 NE5       30.25S WCI  26
AUSTIN         CLOUDY    43  41  93 N12       30.23F FOG     WCI  37
BROWNSVILLE    CLOUDY    61  55  81 N7        30.13F
CORPUS CHRISTI LGT RAIN  51  50  96 NW9       30.17S FOG
DALLAS FTW     CLOUDY    37  34  89 N14       30.31F WCI  28
DEL RIO        CLOUDY    52  46  80 NW8       30.18F
EL PASO        CLOUDY    72  16  12 S15       30.04F
HOUSTON INT    FOG       59  57  93 NW8       30.18F VSB 1/4
LUBBOCK        CLOUDY    30  27  88 NE7       30.23F WCI  23
SAN ANGELO     CLOUDY    36  35  96 NE9       30.25F WCI  29
SAN ANTONIO    DRIZZLE   47  44  90 NE8       30.19F FOG
WACO           CLOUDY    40  37  89 N15       30.27F WCI  32
WICHITA FALLS  NOT AVBL
$$
...OTHER LOCATIONS IN NEW MEXICO...

CITY           SKY/WX    TMP DP  RH WIND       PRES   REMARKS
ALAMAGORDO     SUNNY     68  32  26 S14G23    30.04F
ALBUQUERQUE    MOSUNNY   56  40  55 W3        30.05F
CANNON AFB     CLOUDY    33  31  90 E6        30.17F WCI  28
CLOVIS         CLOUDY    32  30  93 E7        30.18F WCI  26
HOLLOMAN AFB   SUNNY     71  31  22 S13       30.02F
ROSWELL        CLOUDY    35  32  88 CALM      30.15F
RUIDOSO        MOSUNNY   57  25  28 S15G28    30.14S
SANTA FE       PTSUNNY   51  34  52 S7        30.09F
TRUTH OR CONSE SUNNY     68  25  19 S20G28    30.01F
TUCUMCARI      CLOUDY    34  29  82 E9        30.19S WCI  27
$$


USA.gov is the U.S. government's official web portal to all federal, state and local government web resources and services.